User: anonymous   Login
Location: Unspecified
(0.0000°N, 0.0000°E)
Time: 21:46:53
(UTC+00:00)
Language:

EO-88 - Orbit

View from above orbital plane
View from above orbital plane
View from above satellite
View from above satellite

Ground track
Ground track

The orbit data is extracted from the following two-line orbital elements,

1 42017U 17008BX  18017.88792230 +.00001399 +00000-0 +60816-4 0  9993
2 42017 097.4688 083.7279 0006574 174.5069 185.6241 15.23952022051170
Epoch (UTC): 17 January 2018 21:18:36
Eccentricity: 0.0006574
inclination: 97.4688°
perigee height: 489 km
apogee height: 498 km
right ascension of ascending node: 83.7279°
argument of perigee: 174.5069°
revolutions per day: 15.23952022
mean anomaly at epoch: 185.6241°
orbit number at epoch: 5117

The dashed part of the orbit path shows where the satellite is in the earth's shadow,  

DLR